Flag Weather past 2 weeks in Saltillo, Coahuila, Mexico

Now
68 °F

Sunny.


Feels Like: 68 °F
Forecast: N/A
Wind: 7 mph from Northwest

Location: Saltillo Airport

Current Time: Nov 28, 2014 at 4:03:49 PM

Latest Report: Nov 28, 2014 at 2:40 PM


Visibility: 10 mi

Pressure: 30.24 "Hg

Humidity: 35%

Dew point: 39 °F

Location of SaltilloLocation

Historic Weather in Saltillo — Graph

°F

Saltillo temperature yesterday

Maximum temperature yesterday: 63 °F (at 12:40 PM)
Minimum temperature yesterday: 39 °F (at 6:40 AM)
Average temperature yesterday: 52 °F

Past Weeks' High & Low Weather Summary

 TemperatureHumidityPressure
High81 °F (Nov 16, 12:40 PM)100% (Nov 13, 5:40 PM)30.50 "Hg (Nov 13, 5:40 PM)
Low34 °F (Nov 18, 7:40 AM)24% (Nov 16, 2:40 PM)29.90 "Hg (Nov 23, 3:40 PM)
Average57 °F58%30.22 "Hg
* Reported Nov 13 2:40 PM — Nov 28 2:40 PM, Saltillo, Weather by CustomWeather, © 2014

Note: Actual official high and low records may vary slightly from our data, if they occured in-between our weather recording intervals... More about our weather records

Advertising

Saltillo weather history for previous 24 hours

 ConditionsComfort  
Time TempWeatherWind HumidityBarometerVisibility
2:40 PM
Nov 28
68 °FSunny.7 mph35%30.24 "Hg10 mi
1:40 PM68 °FSunny.6 mph35%30.27 "Hg10 mi
12:40 PM66 °FSunny.9 mph40%30.30 "Hg10 mi
11:40 AM64 °FSunny.7 mph32%30.33 "Hg10 mi
10:40 AM61 °FSunny.No wind39%30.36 "Hg10 mi
9:40 AM55 °FSunny.No wind44%30.37 "Hg10 mi
8:40 AM52 °FSunny.No wind54%30.38 "Hg10 mi
7:40 AM37 °FSunny.No wind75%30.38 "Hg10 mi
6:40 AM39 °FClear.No wind65%30.38 "Hg10 mi
1:40 AM39 °FClear.No wind65%30.40 "Hg10 mi
12:40 AM41 °FClear.No wind61%30.41 "Hg10 mi
11:40 PM
Nov 27
45 °FClear.No wind53%30.44 "Hg10 mi
10:40 PM45 °FClear.No wind53%30.44 "Hg10 mi
9:40 PM46 °FClear.No wind50%30.44 "Hg10 mi
8:40 PM48 °FClear.No wind54%30.45 "Hg10 mi
6:40 PM50 °FClear.12 mph50%30.43 "Hg10 mi
Weather by CustomWeather, © 2014

See weather overviewHow to use our weather pages